Location: Unspecified
(0.0000°N, 0.0000°E)
Time: 04:03:26
(UTC+00:00)

deb Delta 104 - Pass Details

Date: 11 March 2026
Orbit: 1430 x 1579 km, 102.3° (Epoch: 17 April)

Event Time Altitude Azimuth Distance (km) Brightness Sun altitude
Rises 03:13:47 0° 60° (ENE) 4,756 ? -44.0°
Reaches altitude 10° 03:19:19 10° 88° (E) 3,764 ? -42.6°
Maximum altitude 03:22:17 12° 108° (ESE) 3,593 ? -41.8°
Drops below altitude 10° 03:25:15 10° 129° (SE) 3,745 ? -41.1°
Sets 03:30:38 0° 156° (SSE) 4,702 ? -39.8°
